Regional Weather Roundup
Issued by NWS

Home | Current Version | Previous Version | Text Only | Print | Product List | Glossary Off
Versions: 1 2 3 4 5 6 7 8 9 10 11 12 13 14 15 16 17 18 19 20 21 22 23 24 25 26 27

000
ASUS45 KBOI 262210
RWRID

IDAHO REGIONAL WEATHER ROUNDUP
NATIONAL WEATHER SERVICE BOISE ID
400 PM MDT SUN MAR 26 2017

NOTE: "FAIR" INDICATES FEW OR NO CLOUDS BELOW 12000 FEET
WITH NO SIGNIFICANT WEATHER AND/OR OBSTRUCTIONS TO VISIBILITY

IDZ012-014-262300-
SOUTHWEST IDAHO


CITY           SKY/WX    TMP DP  RH WIND       PRES   REMARKS
BOISE          CLOUDY    48  37  65 W8        29.96R
CALDWELL       LGT RAIN  51  38  60 VRB5      29.94F
MOUNTAIN HOME  LGT RAIN  48  40  75 SW9       29.96S
$$

IDZ016-017-262300-
SOUTHCENTRAL IDAHO


CITY           SKY/WX    TMP DP  RH WIND       PRES   REMARKS
BURLEY         PTSUNNY   56  25  30 S14G21    29.90F
JEROME         CLOUDY    56  28  34 S7        29.91F
TWIN FALLS     CLOUDY    54  26  34 SW16G24   29.91S
$$

IDZ019>023-262300-
SOUTHEAST IDAHO


CITY           SKY/WX    TMP DP  RH WIND       PRES   REMARKS
IDAHO FALLS    CLOUDY    51  25  36 SW13      29.95F
POCATELLO      CLOUDY    52  32  46 S16       29.95F
REXBURG        CLOUDY    49  21  33 SW16G28   29.95F
$$

IDZ006-010-011-018-031-032-262300-
CENTRAL IDAHO MOUNTAINS


CITY           SKY/WX    TMP DP  RH WIND       PRES   REMARKS
MCCALL         LGT RAIN  35  32  88 S7        29.87R WCI  29
HAILEY         PTSUNNY   46  30  53 SE6       29.96F
STANLEY          N/A     39  22  50 S9        29.90F WCI  33
SALMON         CLOUDY    55  19  24 S15       29.81F
CHALLIS        CLOUDY    50  19  29 S17G23    29.84F
$$

IDZ002-004-006-007-026-262300-
NORTHERN IDAHO


CITY           SKY/WX    TMP DP  RH WIND       PRES   REMARKS
LEWISTON       LGT RAIN  47  42  83 NW10      29.86R
LOWELL           N/A     54  42  64 CALM      29.85F
COEUR D`ALENE  LGT RAIN  50  35  56 N9        29.83F
MULLAN PASS    CLOUDY    36  30  79 VRB3      29.82F
$$




USA.gov is the U.S. government's official web portal to all federal, state and local government web resources and services.